Terminal Aerodrome Forecast
Issued by NWS Charleston, WV

Current Version | Previous Version | Graphics & Text | Print | Product List | Glossary On
Versions: 1 2 3 4 5 6 7 8 9 10 11 12 13 14 15 16 17 18 19 20 21 22 23 24 25 26 27 28
000
FTUS41 KRLX 191505 AAB
TAFEKN
TAF AMD
KEKN 191505Z 1915/2012 00000KT P6SM OVC010
     FM191800 VRB03KT P6SM BKN015 BKN200
     FM201000 16005KT 5SM -SHRA OVC035=

USA.gov is the U.S. government's official web portal to all federal, state and local government web resources and services.